Location: Feudal
(51.8839°N, 107.6105°W)
Time: 04:03:13
(UTC+00:00)

Envisat - Pass Details

Date: 29 January 2022
Orbit: 764 x 765 km, 98.2° (Epoch: 25 May)

Event Time Altitude Azimuth Distance (km) Brightness Sun altitude
Rises 12:24:08 0° 14° (NNE) 3,245 6.4 -23.1°
Reaches altitude 10° 12:26:27 10° 13° (NNE) 2,315 5.6 -22.7°
Maximum altitude 12:31:33 83° 287° (WNW) 779 2.9 -21.9°
Drops below altitude 10° 12:36:38 10° 200° (SSW) 2,299 5.3 -21.1°
Sets 12:38:55 0° 199° (SSW) 3,221 6.1 -20.8°
